Location: Huntington
(41.1031°N, 82.2210°W)
Time: 15:21:20
(UTC+00:00)

Daily predictions for brighter satellites

Satellite Brightness Start Highest point End
(mag) Time Altitude Azimuth Time Altitude Azimuth Time Altitude Azimuth
CZ-4B R/B 3.3 12:03:29 10° N 12:06:40 31° WNW 12:09:53 10° SW
ATLAS 5 CENTAUR R/B 2.8 12:04:32 10° W 12:07:28 20° NW 12:10:40 10° N
Cosmos 158 Rocket 4.3 12:03:25 10° NNW 12:08:25 51° WSW 12:13:30 10° S
Cosmos 923 Rocket 4.4 12:03:54 10° NNW 12:09:15 72° ENE 12:14:34 10° SSE
Cosmos 1340 Rocket 4.0 12:06:35 10° WSW 12:09:38 21° WNW 12:12:43 10° NNW
Cosmos 1697 Rocket 4.2 12:05:01 10° S 12:10:17 42° ESE 12:15:33 10° NE
Cosmos 1634 Rocket 4.2 22:20:09 10° SSE 22:26:17 56° E 22:32:28 10° NNE
Cosmos 2026 Rocket 4.0 22:23:13 10° N 22:29:14 56° E 22:35:09 10° SSE
Meteor 1-20 Rocket 4.4 22:24:51 10° N 22:30:44 89° W 22:36:35 10° S
ISS -3.5 22:27:28 10° NW 22:30:48 48° NNE 22:34:05 10° ESE
Cosmos 44 Rocket 4.4 22:27:38 10° N 22:31:32 23° NE 22:35:21 10° E
Cosmos 1898 Rocket 3.8 22:26:49 10° NNW 22:32:03 74° WSW 22:37:13 10° S
Cosmos 2195 Rocket 4.5 22:27:30 10° N 22:33:41 73° E 22:39:54 10° SSE
Cosmos 1809 Rocket 4.4 22:28:43 10° N 22:34:48 69° E 22:40:50 10° SSE
Cosmos 1812 3.3 22:31:27 10° SSE 22:34:58 35° E 22:38:30 10° NNE
Cosmos 1805 Rocket 3.5 22:30:51 10° N 22:35:12 74° E 22:39:31 10° SSE
NOAA 12 4.1 22:32:54 10° SSE 22:38:13 87° ENE 22:43:34 10° NNW
Cosmos 1818 4.3 22:40:29 10° NNW 22:45:24 32° NE 22:50:15 10° ESE
Cosmos 1933 4.1 22:42:11 10° SSW 22:46:09 55° W 22:50:08 10° N
Cosmos 1697 Rocket 3.4 22:42:07 10° NNW 22:47:38 60° WSW 22:53:08 10° S
Meteor 1-26 Rocket 4.4 22:42:59 10° S 22:48:58 88° E 22:55:04 10° N
Cosmos 2322 Rocket 3.6 22:45:30 10° N 22:49:13 17° NE 22:52:54 10° E
Cosmos 1980 Rocket 2.1 22:47:54 10° NNW 22:53:35 78° ENE 22:59:12 10° SSE
CZ-4B R/B 3.7 22:50:09 10° S 22:54:05 54° W 22:57:50 10° NNW
Cosmos 841 Rocket 4.0 22:50:50 10° SSW 22:55:55 60° WNW 23:01:01 10° NNE
CORIOLIS 4.1 22:51:46 10° SSE 22:57:08 75° ENE 23:02:34 10° N
Cosmos 1900 4.3 22:52:21 10° SSW 22:57:11 75° ESE 23:02:04 10° NE
Cosmos 921 Rocket 3.6 22:53:27 10° SSE 22:57:14 34° E 23:00:53 11° NE
APEX 4.1 22:53:53 10° S 22:57:17 27° ESE 22:59:14 16° ENE
Cosmos 2208 Rocket 4.1 22:55:12 10° S 23:00:30 62° ESE 23:05:54 10° NNE
Tiangong 3.6 23:01:44 10° SSE 23:02:48 11° SE 23:03:50 10° SE
COSMOS 2455 3.6 22:57:09 10° SW 23:02:59 51° NW 23:08:53 10° NNE
Cosmos 2369 4.1 22:57:45 10° NNW 23:03:27 69° WSW 23:09:06 10° SSE
USA 267 3.5 22:57:09 10° NE 23:03:37 65° NW 23:10:03 10° WSW
DEBRIS 4.0 23:02:57 10° S 23:04:46 19° ESE 23:05:58 16° E
Cosmos 372 Rocket 4.2 23:02:28 10° NNW 23:07:43 78° WSW 23:12:57 10° SSE
Cosmos 2082 Rocket 2.9 23:03:45 10° SW 23:09:20 55° WNW 23:14:54 10° NNE
SL-16 R/B 2.9 23:04:41 10° N 23:09:40 30° NE 23:14:37 10° ESE
H-2A R/B 2.0 23:05:27 10° SSE 23:10:29 59° ENE 23:15:26 10° N
ARGOS 3.6 23:07:48 10° SE 23:12:45 38° ENE 23:17:42 10° N
Meteor 1-5 Rocket 4.3 23:07:13 10° N 23:13:12 71° E 23:19:01 10° SSE
Cosmos 1500 4.0 23:10:12 10° NNW 23:13:50 52° W 23:17:27 10° S
COSMO-SKYMED 1 2.9 23:09:57 10° NNE 23:14:06 43° E 23:18:13 10° S
Cosmos 1151 Rocket 3.1 23:10:15 10° S 23:14:34 84° W 23:18:58 10° N
Cosmos 1125 Rocket 4.1 23:10:24 10° N 23:15:11 34° ENE 23:19:57 10° SE
Cosmos 1633 Rocket 2.9 23:11:31 10° N 23:15:55 70° E 23:20:16 10° SSE
Meteor 2-16 Rocket 4.4 23:14:28 10° N 23:20:37 83° E 23:26:46 10° S
Cosmos 1939 Rocket 4.4 23:18:13 10° S 23:22:05 40° W 23:25:56 10° NNW
X-37B 0.6 23:19:30 10° SW 23:22:19 55° SSE 23:23:02 40° E
SL-08 RB Rocket 4.4 23:20:17 10° SE 23:24:20 31° ENE 23:28:21 10° N
Landsat 5 3.9 23:23:02 25° NE 23:24:39 36° E 23:28:16 10° SSE
CZ-4B DEB 4.4 23:19:20 10° S 23:24:49 75° WSW 23:30:20 10° NNW
CZ-2D R/B 3.3 23:22:11 10° S 23:25:59 82° WSW 23:29:50 10° NNW
Cosmos 2278 3.8 23:20:31 10° NNW 23:26:15 81° WSW 23:31:54 10° SSE
USA 306 4.2 23:23:47 10° NNW 23:27:11 23° NNE 23:27:42 22° NNE
Cosmos 2333 Rocket 4.2 23:24:58 10° NNE 23:25:38 11° NNE 23:25:38 11° NNE
USA 234 3.2 23:28:58 10° ESE 23:35:28 71° NE 23:41:58 10° NW
Meteor 2-15 Rocket 4.4 23:30:19 10° S 23:36:18 60° E 23:42:17 10° NNE
CZ-2C R/B 2.4 23:31:29 10° NNE 23:36:41 78° ESE 23:41:51 10° S
SKYMED 3 4.4 23:34:12 12° NNE 23:38:16 82° ESE 23:42:36 10° S
NOSS 3-3 (A) 4.2 23:36:39 10° S 23:41:47 40° ESE 23:43:32 32° ENE
NOSS 3-3 (C) 4.2 23:36:45 10° S 23:41:54 40° ESE 23:43:36 32° ENE
Cosmos 1328 Rocket 4.1 23:37:57 10° SSW 23:42:19 59° W 23:46:44 10° N
Cosmos 1933 Rocket 3.7 23:38:08 10° N 23:42:20 46° ENE 23:46:30 10° SSE
Cosmos 1666 3.8 23:39:08 10° NNW 23:42:40 43° W 23:46:11 10° SSW
Okean O Rocket 1.5 23:42:19 10° SSE 23:46:45 74° ENE 23:51:13 10° N
USA 307 4.2 23:43:56 10° NNW 23:47:06 26° NNE 23:47:06 26° NNE
Cosmos 1470 Rocket 3.5 23:43:50 10° N 23:48:20 89° W 23:52:48 10° S
CZ-4B R/B 3.2 23:46:37 10° SSE 23:52:01 80° WSW 23:57:24 10° NNW
CZ-4C R/B 4.0 23:54:58 34° SSE 23:54:58 34° SSE 23:57:04 10° S
ATLAS 5 CENTAUR R/B 3.0 23:51:20 10° NNW 23:54:52 29° N 23:54:52 29° N
